• en France
  • Liste des pays
  • À 7 jours
  • Température de l'eau
  • Carte satellitaire
  • Carte météo
  • Widgets météo
  • user-avatar
    Se connecter

    Météo par heure à Childa

    Ce jour, 21 Août, Mardi

    Heure Température Précipitation Vent Pression Humidité
    00:00 +12°C° 0 mm 2 m/s 640 mmHg 83%
    01:00 +12°C° 0 mm 2 m/s 640 mmHg 81%
    02:00 +12°C° 0 mm 2 m/s 640 mmHg 80%
    03:00 +12°C° 0 mm 2 m/s 640 mmHg 82%
    04:00 +12°C° 0 mm 2 m/s 640 mmHg 81%
    05:00 +13°C° 0 mm 2 m/s 640 mmHg 80%
    06:00 +13°C° 0 mm 2 m/s 640 mmHg 79%
    07:00 +15°C° 0 mm 2 m/s 641 mmHg 71%
    08:00 +18°C° 0 mm 2 m/s 642 mmHg 63%
    09:00 +20°C° 0 mm 2 m/s 642 mmHg 54%
    10:00 +21°C° 0 mm 2 m/s 643 mmHg 52%
    11:00 +23°C° 0 mm 2 m/s 643 mmHg 50%
    12:00 +24°C° 0 mm 2 m/s 643 mmHg 48%
    13:00 +24°C° 0,2 mm 2 m/s 643 mmHg 49%
    14:00 +24°C° 0,2 mm 2 m/s 642 mmHg 50%
    15:00 +24°C° 0,2 mm 2 m/s 642 mmHg 51%
    16:00 +23°C° 0,1 mm 2 m/s 642 mmHg 56%
    17:00 +22°C° 0,1 mm 1 m/s 641 mmHg 60%
    18:00 +21°C° 0,1 mm 1 m/s 641 mmHg 65%
    19:00 +19°C° 0 mm 1 m/s 641 mmHg 67%
    20:00 +16°C° 0 mm 1 m/s 640 mmHg 69%
    21:00 +15°C° 0 mm 2 m/s 640 mmHg 71%
    22:00 +15°C° 0 mm 2 m/s 640 mmHg 68%
    23:00 +14°C° 0 mm 2 m/s 639 mmHg 65%

    Demain, 22 Août, Mercredi

    Heure Température Précipitation Vent Pression Humidité
    00:00 +14°C° 0 mm 2 m/s 639 mmHg 62%
    01:00 +14°C° 0 mm 2 m/s 639 mmHg 59%
    02:00 +14°C° 0 mm 2 m/s 639 mmHg 57%
    03:00 +14°C° 0 mm 2 m/s 639 mmHg 55%
    04:00 +15°C° 0 mm 2 m/s 639 mmHg 58%
    05:00 +15°C° 0 mm 1 m/s 639 mmHg 60%
    06:00 +15°C° 0 mm 1 m/s 640 mmHg 62%
    07:00 +18°C° 0,1 mm 1 m/s 640 mmHg 58%
    08:00 +19°C° 0,1 mm 1 m/s 640 mmHg 55%
    09:00 +21°C° 0,1 mm 1 m/s 641 mmHg 52%
    10:00 +22°C° 0 mm 1 m/s 641 mmHg 50%
    11:00 +23°C° 0 mm 2 m/s 641 mmHg 49%
    12:00 +25°C° 0 mm 2 m/s 641 mmHg 47%
    13:00 +24°C° 0,5 mm 2 m/s 641 mmHg 50%
    14:00 +24°C° 0,5 mm 2 m/s 641 mmHg 54%
    15:00 +24°C° 0,5 mm 2 m/s 640 mmHg 57%
    16:00 +23°C° 0,5 mm 2 m/s 640 mmHg 63%
    17:00 +22°C° 0,5 mm 1 m/s 640 mmHg 68%
    18:00 +21°C° 0,5 mm 1 m/s 640 mmHg 74%
    19:00 +20°C° 0,3 mm 1 m/s 640 mmHg 77%
    20:00 +19°C° 0,3 mm 1 m/s 640 mmHg 79%
    21:00 +18°C° 0,3 mm 1 m/s 640 mmHg 82%
    22:00 +16°C° 0,2 mm 1 m/s 640 mmHg 82%
    23:00 +16°C° 0,2 mm 1 m/s 640 mmHg 82%

    Après-demain, 23 Août, Jeudi

    Heure Température Précipitation Vent Pression Humidité
    00:00 +15°C° 0,2 mm 1 m/s 640 mmHg 82%
    01:00 +15°C° 0 mm 1 m/s 640 mmHg 83%
    02:00 +14°C° 0 mm 1 m/s 640 mmHg 83%
    03:00 +14°C° 0 mm 1 m/s 640 mmHg 83%
    04:00 +15°C° 0 mm 1 m/s 640 mmHg 82%
    05:00 +15°C° 0 mm 1 m/s 640 mmHg 82%
    06:00 +15°C° 0 mm 1 m/s 640 mmHg 82%
    07:00 +18°C° 0 mm 1 m/s 641 mmHg 75%
    08:00 +20°C° 0 mm 1 m/s 642 mmHg 69%
    09:00 +22°C° 0 mm 1 m/s 642 mmHg 63%
    10:00 +21°C° 0,2 mm 2 m/s 642 mmHg 61%
    11:00 +23°C° 0,2 mm 2 m/s 642 mmHg 60%
    12:00 +23°C° 0,2 mm 2 m/s 642 mmHg 58%
    13:00 +23°C° 0,4 mm 2 m/s 642 mmHg 58%
    14:00 +23°C° 0,4 mm 2 m/s 642 mmHg 58%
    15:00 +23°C° 0,4 mm 2 m/s 642 mmHg 58%
    16:00 +21°C° 0,1 mm 2 m/s 642 mmHg 61%
    17:00 +22°C° 0,1 mm 1 m/s 642 mmHg 64%
    18:00 +21°C° 0,1 mm 1 m/s 642 mmHg 67%
    19:00 +19°C° 0 mm 1 m/s 641 mmHg 70%
    20:00 +18°C° 0 mm 1 m/s 641 mmHg 73%
    21:00 +15°C° 0 mm 1 m/s 641 mmHg 76%
    22:00 +15°C° 0 mm 1 m/s 641 mmHg 75%
    23:00 +15°C° 0 mm 1 m/s 641 mmHg 73%

    24 Août, Vendredi

    Heure Température Précipitation Vent Pression Humidité
    00:00 +14°C° 0 mm 1 m/s 641 mmHg 71%
    01:00 +14°C° 0 mm 1 m/s 641 mmHg 71%
    02:00 +14°C° 0 mm 1 m/s 641 mmHg 71%
    03:00 +14°C° 0 mm 2 m/s 641 mmHg 71%
    04:00 +14°C° 0 mm 2 m/s 641 mmHg 72%
    05:00 +14°C° 0 mm 1 m/s 641 mmHg 73%
    06:00 +15°C° 0 mm 1 m/s 641 mmHg 74%
    07:00 +17°C° 0 mm 2 m/s 642 mmHg 68%
    08:00 +19°C° 0 mm 2 m/s 642 mmHg 61%
    09:00 +21°C° 0 mm 2 m/s 643 mmHg 55%
    10:00 +23°C° 0 mm 2 m/s 643 mmHg 53%
    11:00 +24°C° 0 mm 2 m/s 643 mmHg 52%
    12:00 +24°C° 0 mm 2 m/s 643 mmHg 50%
    13:00 +25°C° 0,2 mm 2 m/s 643 mmHg 51%
    14:00 +25°C° 0,2 mm 2 m/s 642 mmHg 51%
    15:00 +25°C° 0,2 mm 2 m/s 642 mmHg 51%
    16:00 +23°C° 0 mm 2 m/s 642 mmHg 55%
    17:00 +21°C° 0 mm 2 m/s 641 mmHg 60%
    18:00 +21°C° 0 mm 1 m/s 641 mmHg 64%
    19:00 +20°C° 0 mm 1 m/s 641 mmHg 64%
    20:00 +18°C° 0 mm 1 m/s 641 mmHg 65%
    21:00 +16°C° 0 mm 2 m/s 640 mmHg 65%
    22:00 +15°C° 0 mm 2 m/s 640 mmHg 63%
    23:00 +15°C° 0 mm 2 m/s 640 mmHg 60%

    25 Août, Samedi

    Heure Température Précipitation Vent Pression Humidité
    00:00 +15°C° 0 mm 2 m/s 640 mmHg 58%
    01:00 +15°C° 0 mm 2 m/s 640 mmHg 60%
    02:00 +14°C° 0 mm 2 m/s 639 mmHg 62%
    03:00 +14°C° 0 mm 2 m/s 639 mmHg 64%
    04:00 +14°C° 0 mm 1 m/s 639 mmHg 65%
    05:00 +15°C° 0 mm 1 m/s 639 mmHg 65%
    06:00 +15°C° 0 mm 1 m/s 639 mmHg 66%
    07:00 +19°C° 0 mm 1 m/s 640 mmHg 60%
    08:00 +21°C° 0 mm 1 m/s 641 mmHg 54%
    09:00 +23°C° 0 mm 1 m/s 642 mmHg 49%
    10:00 +24°C° 0 mm 2 m/s 642 mmHg 48%
    11:00 +25°C° 0 mm 2 m/s 642 mmHg 47%
    12:00 +26°C° 0 mm 2 m/s 642 mmHg 46%
    13:00 +26°C° 0,1 mm 2 m/s 641 mmHg 47%
    14:00 +25°C° 0,1 mm 2 m/s 641 mmHg 48%
    15:00 +25°C° 0,1 mm 2 m/s 641 mmHg 49%
    16:00 +24°C° 0,1 mm 2 m/s 641 mmHg 54%
    17:00 +23°C° 0,1 mm 2 m/s 640 mmHg 58%
    18:00 +22°C° 0,1 mm 1 m/s 640 mmHg 63%
    19:00 +20°C° 0 mm 1 m/s 640 mmHg 65%
    20:00 +19°C° 0 mm 1 m/s 640 mmHg 68%
    21:00 +16°C° 0 mm 1 m/s 639 mmHg 70%
    22:00 +16°C° 0 mm 1 m/s 639 mmHg 67%
    23:00 +15°C° 0 mm 2 m/s 639 mmHg 64%

    26 Août, Dimanche

    Heure Température Précipitation Vent Pression Humidité
    00:00 +15°C° 0 mm 2 m/s 639 mmHg 61%
    01:00 +15°C° 0 mm 2 m/s 639 mmHg 58%
    02:00 +14°C° 0 mm 2 m/s 639 mmHg 56%
    03:00 +14°C° 0 mm 2 m/s 638 mmHg 53%
    04:00 +14°C° 0 mm 2 m/s 639 mmHg 53%
    05:00 +15°C° 0 mm 2 m/s 639 mmHg 53%
    06:00 +15°C° 0 mm 2 m/s 639 mmHg 53%
    07:00 +18°C° 0 mm 2 m/s 640 mmHg 49%
    08:00 +20°C° 0 mm 2 m/s 640 mmHg 44%
    09:00 +23°C° 0 mm 2 m/s 641 mmHg 40%
    10:00 +24°C° 0 mm 2 m/s 641 mmHg 38%
    11:00 +25°C° 0 mm 2 m/s 641 mmHg 37%
    12:00 +26°C° 0 mm 3 m/s 641 mmHg 36%
    13:00 +27°C° 0 mm 3 m/s 641 mmHg 36%
    14:00 +27°C° 0 mm 3 m/s 641 mmHg 36%
    15:00 +27°C° 0 mm 3 m/s 640 mmHg 36%
    16:00 +25°C° 0 mm 2 m/s 640 mmHg 41%
    17:00 +24°C° 0 mm 2 m/s 640 mmHg 45%
    18:00 +21°C° 0 mm 2 m/s 639 mmHg 50%
    19:00 +20°C° 0 mm 2 m/s 639 mmHg 48%
    20:00 +18°C° 0 mm 2 m/s 639 mmHg 47%
    21:00 +16°C° 0 mm 2 m/s 638 mmHg 45%
    22:00 +16°C° 0 mm 2 m/s 638 mmHg 46%
    23:00 +16°C° 0 mm 2 m/s 638 mmHg 47%
    Voir plus